Location: Vancouver
(49.2500°N, 123.1330°W)
Time: 08:55:22
(UTC-07:00)

SO-67 - Visible Passes

Search period start: 30 October 2014 00:00
Search period end: 08 November 2014 23:00
Orbit: 458 x 461 km, 97.2° (Epoch: 30 October)

Date Brightness Start Highest point End Pass type
(mag) Time Alt. Az. Time Alt. Az. Time Alt. Az.
30 Oct ? 18:33:29 10° ESE 18:36:15 23° ENE 18:39:02 10° NNE visible
30 Oct ? 20:06:09 10° SSW 20:09:08 27° W 20:12:08 10° NW visible
31 Oct ? 07:25:35 10° NE 07:27:42 15° E 07:29:49 10° SE visible
31 Oct ? 19:33:35 10° S 19:37:00 67° WSW 19:40:27 10° NNW visible
01 Nov ? 19:01:41 10° SSE 19:05:00 48° ENE 19:08:21 10° N visible
01 Nov ? 20:36:32 10° WSW 20:38:15 13° W 20:39:59 10° WNW visible
02 Nov ? 17:30:26 10° ESE 17:33:06 21° ENE 17:35:48 10° NNE visible
02 Nov ? 19:02:54 10° SSW 19:05:56 29° W 19:09:01 10° NNW visible
03 Nov ? 06:22:32 10° NE 06:24:28 14° E 06:26:24 10° SE visible
03 Nov ? 18:30:19 10° S 18:33:45 73° WSW 18:37:12 10° NNW visible
04 Nov ? 17:58:23 10° SE 18:01:40 44° ENE 18:04:58 10° N visible
04 Nov ? 19:32:56 10° SW 19:34:52 14° W 19:36:49 10° NW visible
05 Nov ? 17:27:08 10° ESE 17:29:42 20° ENE 17:32:17 10° NNE visible
05 Nov ? 18:59:22 10° SSW 19:02:29 32° W 19:05:38 10° NNW visible
06 Nov ? 06:19:15 10° ENE 06:20:57 13° E 06:22:39 10° ESE visible
06 Nov ? 18:26:47 10° S 18:30:13 81° WSW 18:33:41 10° NNW visible
07 Nov ? 17:54:50 10° SE 17:58:04 40° ENE 18:01:20 10° N visible
07 Nov ? 19:29:05 10° SW 19:31:13 16° W 19:33:23 10° NW visible
08 Nov ? 17:23:35 10° ESE 17:26:02 19° ENE 17:28:29 10° NNE visible
08 Nov ? 18:55:35 10° SSW 18:58:46 35° W 19:01:58 10° NNW visible
